Location: Madrid
(40.4000°N, 3.6830°W)
Time: 13:51:09
(UTC+01:00)

ISS - Pass Details

Date: 11 December 2017
Orbit: 402 x 406 km, 51.6° (Epoch: 16 December)

Event Time Altitude Azimuth Distance (km) Brightness Sun altitude
Rises 19:44:55 0° 311° (NW) 2,330 0.5 -21.4°
Reaches altitude 10° 19:47:06 10° 320° (NW) 1,467 -0.7 -21.8°
Enters shadow 19:48:22 20° 333° (NNW) 1,019 -1.7 -22.1°
